Location: Oshawa
(43.9000°N, 78.8670°W)
Time: 04:46:28
(UTC-05:00)

Cosmos 839 Rocket - Visible Passes

Search period start: 23 November 2014 00:00
Search period end: 03 December 2014 00:00
Orbit: 968 x 2085 km, 65.9° (Epoch: 20 November)

Date Brightness Start Highest point End Pass type
(mag) Time Alt. Az. Time Alt. Az. Time Alt. Az.
23 Nov 5.9 06:14:31 10° NNW 06:19:50 27° NE 06:25:49 10° E visible
24 Nov 6.1 05:32:56 10° NNW 05:37:26 20° NNE 05:42:20 10° ENE visible
25 Nov 6.2 04:51:25 10° N 04:54:52 15° NNE 04:58:31 10° ENE visible
25 Nov 5.0 06:50:10 10° NNW 06:56:30 53° NE 07:04:05 10° SE visible
26 Nov 6.4 04:10:28 11° N 04:12:09 12° NNE 04:14:20 10° NE visible
26 Nov 5.5 06:08:28 10° NNW 06:14:24 37° NE 06:21:19 10° ESE visible
27 Nov 5.9 05:26:50 10° NNW 05:32:10 26° NE 05:38:10 10° E visible
28 Nov 6.1 04:45:50 12° N 04:49:45 19° NNE 04:54:41 10° ENE visible
28 Nov 4.6 06:44:16 10° NNW 06:50:51 76° NE 06:58:53 10° SE visible
29 Nov 6.3 04:05:15 13° N 04:07:11 15° NNE 04:10:51 10° ENE visible
29 Nov 5.0 06:02:30 10° NNW 06:08:51 52° NE 06:16:29 10° SE visible
30 Nov 6.5 03:24:40 12° NNE 03:24:40 12° NNE 03:26:40 10° NE visible
30 Nov 5.5 05:21:18 12° NNW 05:26:45 36° NE 05:33:42 10° ESE visible
01 Dec 5.9 04:40:45 16° N 04:44:30 26° NE 04:50:32 10° E visible
01 Dec 4.4 06:38:28 10° NW 06:45:07 77° WSW 06:53:19 10° SSE visible
02 Dec 6.1 04:00:14 17° NNE 04:02:05 19° NNE 04:07:01 10° ENE visible
02 Dec 4.5 05:56:51 11° NNW 06:03:12 75° NE 06:11:18 10° SE visible
